TimeMST,TemperatureF,Dew PointF,Humidity,Sea Level PressureIn,VisibilityMPH,Wind Direction,Wind SpeedMPH,Gust SpeedMPH,PrecipitationIn,Events,Conditions,WindDirDegrees,DateUTC
12:53 AM,19.9,17.1,89,30.48,10.0,South,6.9,-,N/A,,Clear,170,2013-03-02 07:53:00
1:53 AM,24.8,19.4,80,30.46,10.0,WSW,4.6,-,N/A,,Overcast,250,2013-03-02 08:53:00
2:53 AM,21.0,18.0,88,30.46,10.0,SSW,6.9,-,N/A,,Clear,200,2013-03-02 09:53:00
3:53 AM,18.0,16.0,92,30.48,10.0,SW,3.5,-,N/A,,Clear,230,2013-03-02 10:53:00
4:53 AM,17.6,12.2,79,30.44,10.0,Calm,Calm,-,N/A,,Clear,0,2013-03-02 11:53:00
5:53 AM,21.0,17.1,85,30.49,10.0,Calm,Calm,-,N/A,,Clear,0,2013-03-02 12:53:00
6:53 AM,15.1,12.0,88,30.54,10.0,NE,3.5,-,N/A,,Clear,40,2013-03-02 13:53:00
7:53 AM,19.4,15.8,86,30.44,10.0,North,3.5,-,N/A,,Clear,350,2013-03-02 14:53:00
8:53 AM,24.1,19.9,84,30.48,10.0,Calm,Calm,-,N/A,,Clear,0,2013-03-02 15:53:00
9:53 AM,32.0,24.1,73,30.44,10.0,ENE,3.5,-,N/A,,Clear,70,2013-03-02 16:53:00
10:53 AM,39.0,27.0,62,30.39,10.0,ENE,6.9,-,N/A,,Clear,60,2013-03-02 17:53:00
11:53 AM,39.0,27.0,62,30.39,10.0,Variable,4.6,-,N/A,,Clear,0,2013-03-02 18:53:00
12:53 PM,39.0,27.0,62,30.36,10.0,ESE,4.6,-,N/A,,Clear,120,2013-03-02 19:53:00
1:53 PM,41.0,27.0,57,30.30,10.0,SE,4.6,-,N/A,,Clear,130,2013-03-02 20:53:00
2:53 PM,42.1,26.1,53,30.27,10.0,Calm,Calm,-,N/A,,Clear,0,2013-03-02 21:53:00
3:53 PM,42.1,26.1,53,30.28,10.0,SW,4.6,-,N/A,,Clear,230,2013-03-02 22:53:00
4:53 PM,41.0,27.0,57,30.26,10.0,Calm,Calm,-,N/A,,Clear,0,2013-03-02 23:53:00
5:53 PM,37.0,26.1,65,30.23,10.0,Calm,Calm,-,N/A,,Clear,0,2013-03-03 00:53:00
6:53 PM,36.0,27.0,70,30.22,10.0,Calm,Calm,-,N/A,,Clear,0,2013-03-03 01:53:00
7:53 PM,30.9,26.1,82,30.22,10.0,NNW,5.8,-,N/A,,Clear,330,2013-03-03 02:53:00
8:53 PM,30.0,25.0,82,30.18,10.0,East,3.5,-,N/A,,Clear,90,2013-03-03 03:53:00
9:53 PM,26.1,23.0,88,30.15,10.0,NNW,3.5,-,N/A,,Clear,340,2013-03-03 04:53:00
10:53 PM,27.0,24.1,89,30.09,10.0,Calm,Calm,-,N/A,,Clear,0,2013-03-03 05:53:00
11:53 PM,25.0,23.0,92,30.08,10.0,ENE,3.5,-,N/A,,Clear,70,2013-03-03 06:53:00